Belen, NM

7:37 AM MST on November 18, 2017 (GMT -0700)
Belen

Weather History for KE80 - January, 2013

Change the Weather History Date:

Sunday, January 20, 2013

  Actual Average (KABQ) Record (KABQ)
Temperature  
Mean Temperature 34 °F -  
Max Temperature 52 °F 46 °F 65 °F (1950)
Min Temperature 15 °F 23 °F -7 °F (1963)
Degree Days  
Heating Degree Days 32    
Moisture  
Dew Point 10 °F    
Average Humidity 44    
Maximum Humidity 77    
Minimum Humidity 17    
Precipitation  
Precipitation 0.00 in - - ()
Sea Level Pressure  
Sea Level Pressure 30.28 in    
Wind  
Wind Speed 5 mph (NNW)    
Max Wind Speed 10 mph    
Max Gust Speed -    
Visibility 10 miles    
Events      
Averages and records for this station are not official NWS values.
T = Trace of Precipitation, MM = Missing Value Source: NWS Daily Summary

Daily Weather History Graph

Daily Weather History Graph

Search for Another Location

Airport or City:

Trip Planner

Search our weather history database for the weather conditions in past years. The results will help you decide how hot, cold, wet, or windy it might be!

Date:

Astronomy

Jan. 20, 2013 Rise Set
Actual Time 7:12 AM MST 5:25 PM MST
Civil Twilight 6:45 AM MST 5:52 PM MST
Nautical Twilight 6:14 AM MST 6:22 PM MST
Astronomical Twilight 5:44 AM MST 6:52 PM MST
Moon 12:27 PM MST (1/20) 1:48 AM MST (1/20)
Length of Visible Light 11h 06m
Length of Day
10h 12m
Waxing Gibbous, 67% of the Moon is Illuminated
Jan 20
Waxing Gibbous
Jan 26
Full
Feb 3
Last Quarter
Feb 10
New
Feb 17
First Quarter

Hourly Weather History & Observations

Time (MST) Temp. Windchill Dew Point Humidity Pressure Visibility Wind Dir Wind Speed Gust Speed Precip Events Conditions
12:15 AM 28.0 °F 20.0 °F 15.8 °F 60% 30.34 in 10.0 mi NNW 8.1 mph - N/A   Clear
12:35 AM 26.1 °F 19.4 °F 15.1 °F 63% 30.34 in 10.0 mi NW 5.8 mph - N/A   Clear
12:55 AM 25.2 °F 18.3 °F 15.3 °F 66% 30.35 in 10.0 mi NNW 5.8 mph - N/A   Clear
1:15 AM 23.0 °F 15.8 °F 13.6 °F 67% 30.35 in 10.0 mi NW 5.8 mph - N/A   Clear
1:35 AM 22.8 °F 12.9 °F 14.0 °F 69% 30.35 in 10.0 mi NW 9.2 mph - N/A   Clear
1:55 AM 23.0 °F 13.1 °F 14.0 °F 68% 30.35 in 10.0 mi NW 9.2 mph - N/A   Clear
2:15 AM 22.5 °F 11.7 °F 13.8 °F 69% 30.35 in 10.0 mi NW 10.4 mph - N/A   Clear
2:35 AM 21.6 °F 13.0 °F 13.5 °F 71% 30.34 in 10.0 mi NW 6.9 mph - N/A   Clear
2:55 AM 19.6 °F 9.7 °F 12.0 °F 72% 30.34 in 10.0 mi NW 8.1 mph - N/A   Clear
3:15 AM 19.4 °F - 12.0 °F 73% 30.34 in 10.0 mi Calm Calm - N/A   Clear
3:35 AM 21.0 °F 14.6 °F 13.1 °F 71% 30.34 in 10.0 mi NNW 4.6 mph - N/A   Clear
3:55 AM 21.4 °F 13.8 °F 12.6 °F 69% 30.34 in 10.0 mi NW 5.8 mph - N/A   Clear
4:15 AM 19.4 °F 10.4 °F 11.8 °F 72% 30.34 in 10.0 mi NNW 6.9 mph - N/A   Clear
4:35 AM 17.8 °F 7.5 °F 11.1 °F 75% 30.33 in 10.0 mi NW 8.1 mph - N/A   Clear
4:55 AM 19.0 °F 9.0 °F 12.2 °F 75% 30.33 in 10.0 mi NNW 8.1 mph - N/A   Clear
5:15 AM 18.7 °F 9.5 °F 11.7 °F 74% 30.33 in 10.0 mi NNW 6.9 mph - N/A   Clear
5:35 AM 18.3 °F 8.2 °F 11.7 °F 75% 30.33 in 10.0 mi NW 8.1 mph - N/A   Clear
5:55 AM 18.0 °F 6.1 °F 11.3 °F 75% 30.33 in 10.0 mi NNW 10.4 mph - N/A   Clear
6:15 AM 20.1 °F 10.3 °F 12.2 °F 71% 30.33 in 10.0 mi NNW 8.1 mph - N/A   Clear
6:35 AM 18.0 °F 8.7 °F 11.1 °F 75% 30.33 in 10.0 mi NW 6.9 mph - N/A   Clear
6:55 AM 16.7 °F 8.3 °F 9.9 °F 74% 30.33 in 10.0 mi NW 5.8 mph - N/A   Clear
7:15 AM 15.8 °F 8.6 °F 9.9 °F 77% 30.33 in 10.0 mi NW 4.6 mph - N/A   Clear
7:35 AM 17.1 °F 8.7 °F 10.4 °F 75% 30.33 in 10.0 mi NW 5.8 mph - N/A   Clear
7:55 AM 19.6 °F 11.7 °F 11.3 °F 70% 30.33 in 10.0 mi NW 5.8 mph - N/A   Clear
8:15 AM 21.9 °F 15.7 °F 11.8 °F 65% 30.33 in 10.0 mi NW 4.6 mph - N/A   Clear
8:35 AM 24.6 °F 16.7 °F 12.2 °F 59% 30.33 in 10.0 mi NW 6.9 mph - N/A   Clear
8:55 AM 27.0 °F 19.5 °F 12.6 °F 55% 30.33 in 10.0 mi NNW 6.9 mph - N/A   Clear
9:15 AM 30.4 °F 24.5 °F 13.6 °F 50% 30.34 in 10.0 mi NNW 5.8 mph - N/A   Clear
9:35 AM 32.4 °F - 14.7 °F 48% 30.34 in 10.0 mi Calm Calm - N/A   Clear
9:55 AM 33.4 °F - 14.2 °F 45% 30.34 in 10.0 mi Calm Calm - N/A   Clear
10:15 AM 35.8 °F - 14.7 °F 42% 30.33 in 10.0 mi Calm Calm - N/A   Clear
10:35 AM 37.0 °F - 14.4 °F 40% 30.33 in 10.0 mi Calm Calm - N/A   Clear
10:55 AM 39.6 °F - 14.5 °F 36% 30.32 in 10.0 mi Calm Calm - N/A   Clear
11:15 AM 40.8 °F - 14.4 °F 34% 30.31 in 10.0 mi Calm Calm - N/A   Clear
11:35 AM 41.9 °F - 14.0 °F 32% 30.30 in 10.0 mi Calm Calm - N/A   Clear
11:55 AM 43.3 °F - 13.6 °F 30% 30.28 in 10.0 mi Calm Calm - N/A   Clear
12:15 PM 44.4 °F 42.0 °F 12.2 °F 27% 30.26 in 10.0 mi NNW 4.6 mph - N/A   Clear
12:55 PM 47.5 °F - 12.9 °F 25% 30.23 in 10.0 mi North 3.5 mph - N/A   Clear
1:15 PM 48.2 °F - 12.6 °F 24% 30.22 in 10.0 mi Calm Calm - N/A   Clear
1:35 PM 49.3 °F - 11.5 °F 22% 30.22 in 10.0 mi ENE 4.6 mph - N/A   Clear
1:55 PM 50.0 °F - 10.4 °F 20% 30.21 in 10.0 mi ENE 4.6 mph - N/A   Clear
2:15 PM 50.4 °F - 10.6 °F 20% 30.21 in 10.0 mi East 4.6 mph - N/A   Clear
2:35 PM 50.9 °F - 10.4 °F 20% 30.21 in 10.0 mi Calm Calm - N/A   Clear
2:55 PM 51.6 °F - 9.5 °F 18% 30.21 in 10.0 mi NNE 3.5 mph - N/A   Clear
3:15 PM 52.3 °F - 9.5 °F 18% 30.20 in 10.0 mi NNE 4.6 mph - N/A   Clear
3:35 PM 52.5 °F - 9.3 °F 18% 30.20 in 10.0 mi NNE 5.8 mph - N/A   Clear
3:55 PM 52.9 °F - 9.3 °F 17% 30.20 in 10.0 mi NNE 4.6 mph - N/A   Clear
4:15 PM 52.7 °F - 9.5 °F 18% 30.20 in 10.0 mi NNE 5.8 mph - N/A   Clear
4:35 PM 52.3 °F - 9.1 °F 18% 30.19 in 10.0 mi NNE 3.5 mph - N/A   Clear
4:55 PM 51.4 °F - 8.6 °F 18% 30.19 in 10.0 mi NE 3.5 mph - N/A   Clear
5:15 PM 49.8 °F - 8.1 °F 18% 30.20 in 10.0 mi Calm Calm - N/A   Clear
5:35 PM 47.3 °F - 8.2 °F 20% 30.20 in 10.0 mi Calm Calm - N/A   Clear
5:55 PM 45.7 °F - 8.4 °F 22% 30.20 in 10.0 mi Calm Calm - N/A   Clear
6:15 PM 40.8 °F 38.8 °F 6.4 °F 24% 30.21 in 10.0 mi West 3.5 mph - N/A   Clear
6:35 PM 38.7 °F - 6.1 °F 26% 30.21 in 10.0 mi Calm Calm - N/A   Clear
6:55 PM 43.2 °F - 7.7 °F 23% 30.22 in 10.0 mi Calm Calm - N/A   Clear
7:15 PM 38.3 °F - 7.5 °F 28% 30.22 in 10.0 mi Calm Calm - N/A   Clear
7:35 PM 34.7 °F 31.8 °F 3.0 °F 26% 30.22 in 10.0 mi NNW 3.5 mph - N/A   Clear
7:55 PM 36.1 °F 33.5 °F 5.7 °F 28% 30.23 in 10.0 mi NW 3.5 mph - N/A   Clear
8:15 PM 33.8 °F - 4.1 °F 29% 30.23 in 10.0 mi Calm Calm - N/A   Clear
8:35 PM 32.7 °F 26.4 °F 5.4 °F 32% 30.24 in 10.0 mi North 6.9 mph - N/A   Clear
8:55 PM 30.4 °F 25.6 °F 3.9 °F 33% 30.24 in 10.0 mi NNE 4.6 mph - N/A   Clear
9:15 PM 31.1 °F 25.4 °F 4.8 °F 33% 30.24 in 10.0 mi NNE 5.8 mph - N/A   Clear
9:35 PM 30.2 °F 23.4 °F 3.7 °F 33% 30.25 in 10.0 mi NNE 6.9 mph - N/A   Clear
9:55 PM 32.2 °F 25.8 °F 6.3 °F 34% 30.25 in 10.0 mi North 6.9 mph - N/A   Clear
10:15 PM 32.2 °F 26.7 °F 6.3 °F 34% 30.26 in 10.0 mi North 5.8 mph - N/A   Clear
10:35 PM 29.8 °F 26.3 °F 4.5 °F 34% 30.26 in 10.0 mi WNW 3.5 mph - N/A   Clear
10:55 PM 27.7 °F 20.4 °F 3.4 °F 35% 30.26 in 10.0 mi NW 6.9 mph - N/A   Clear
11:15 PM 28.4 °F 20.4 °F 4.6 °F 36% 30.26 in 10.0 mi NW 8.1 mph - N/A   Clear
11:35 PM 28.6 °F 19.3 °F 5.0 °F 37% 30.25 in 10.0 mi NW 10.4 mph - N/A   Clear
11:55 PM 28.0 °F 19.3 °F 5.0 °F 38% 30.26 in 10.0 mi NNW 9.2 mph - N/A   Clear